Regional Weather Roundup
Issued by NWS Upton, NY

Current Version | Previous Version | Text Only | Print | Product List | Glossary On
Versions: 1 2 3 4 5 6 7 8 9 10 11 12 13 14 15 16 17 18 19 20 21 22 23 24 25 26 27 28 29 30 31 32 33 34 35 36 37 38 39 40 41 42 43 44 45 46 47 48 49 50
000
ASUS41 KOKX 281704
RWROKX

REGIONAL WEATHER ROUNDUP
NATIONAL WEATHER SERVICE NEW YORK NY
100 PM EDT THU APR 28 2016

NOTE: "FAIR" INDICATES FEW OR NO CLOUDS BELOW 12,000 FEET WITH NO
SIGNIFICANT WEATHER AND/OR OBSTRUCTIONS TO VISIBILITY.

NYZ071-072-176-178-NJZ106-104-281800-
NEW YORK CITY METRO AREA


CITY           SKY/WX    TMP DP  RH WIND       PRES   REMARKS
CENTRAL PARK   CLOUDY    58  22  24 VRB6      30.07F
LAGUARDIA APRT CLOUDY    57  22  25 NE7       30.04F
KENNEDY INTL   CLOUDY    53  34  48 SE13      30.07F
NEWARK/LIBERTY CLOUDY    58  21  24 NE7       30.05F
BRNX BOT. GARD   N/A     57  25  28 NW1       30.05F
TETERBORO      CLOUDY    58  24  27 SE8       30.03F
$$

NYZ177-179-078>081-281800-
LONG ISLAND NEW YORK

CITY           SKY/WX    TMP DP  RH WIND       PRES   REMARKS
FARMINGDALE    CLOUDY    53  38  56 SE10      30.06F
ISLIP          CLOUDY    52  35  52 SE14      30.05F
SHIRLEY        MOSUNNY   52  35  52 SE9       30.07S
RIVERHEAD        N/A     55  32  41 SE3       30.05F
WESTHAMPTON    CLOUDY    49  32  52 SE12G22   30.08S
EAST HAMPTON   FAIR      51  28  40 S12       30.06S
MONTAUK POINT    N/A     51  29  42 VRB7      30.08R
$$

NYZ052-065-067-281800-
HUDSON VALLEY

CITY           SKY/WX    TMP DP  RH WIND       PRES   REMARKS
WHITE PLAINS   CLOUDY    54  25  32 SE9       30.03F
NEWBURGH       PTSUNNY   55  25  30 SE12      30.05F
MONTGOMERY     CLOUDY    56  25  30 CALM      30.03F
POUGHKEEPSIE   SUNNY     58  21  24 CALM      30.03F
ALBANY         PTSUNNY   55  22  27 VRB3      30.05F
$$

NJZ001-105-106-008-010-013-015-019>022-104-281800-
NEW JERSEY

CITY           SKY/WX    TMP DP  RH WIND       PRES   REMARKS
NEWARK/LIBERTY CLOUDY    58  21  24 NE7       30.05F
TETERBORO      CLOUDY    58  24  27 SE8       30.03F
CALDWELL       CLOUDY    57  22  25 VRB5G18   30.04F
MORRISTOWN     CLOUDY    57  25  28 S5        30.04F
SOMERVILLE     CLOUDY    57  27  31 SE5       30.02F
SUSSEX         CLOUDY    56  26  31 NE7       30.03F
ANDOVER          N/A     56  25  30 NE6       30.02F
TRENTON        CLOUDY    55  28  35 E10       30.03F
MILLVILLE      LGT RAIN  51  38  60 E8        30.05R
ATLANTIC CITY  LGT RAIN  51  39  63 E9        30.04S
WRIGHTSTOWN    CLOUDY    54  29  39 E9        30.02S
TOMS RIVER     CLOUDY    52  32  46 E6        30.06S
BELMAR         CLOUDY    51  30  44 E13       30.07R
$$

PAZ047>061-062-071-281800-
EASTERN PENNSYLVANIA

CITY           SKY/WX    TMP DP  RH WIND       PRES   REMARKS
PHILADELPHIA   LGT RAIN  56  33  42 E8        30.05R
ALLENTOWN      CLOUDY    57  27  31 E6        30.02F
SCRANTON       CLOUDY    54  18  24 N8        30.01F
$$

CTZ002-004>006-009-010-012-RIZ004-006-007-MAZ004-011-015-281800-
SOUTHERN NEW ENGLAND
 IN CT

CITY           SKY/WX    TMP DP  RH WIND       PRES   REMARKS
BRADLEY INTL   PTSUNNY   58  17  20 VRB3      30.02F
HARTFORD       SUNNY     59  24  26 E6        30.04F
DANBURY        SUNNY     57  23  26 VRB3      30.04F
WTRBRY/OXFORD  PTSUNNY   55  18  22 N7        30.04F
BRIDGEPORT     MOSUNNY   54  27  35 S14       30.05F
MERIDEN        SUNNY     60  17  18 VRB3      30.03F
NEW HAVEN      PTSUNNY   53  31  42 S13       30.05F
CHESTER        FAIR      55  25  30 S9        30.03F
GROTON         SUNNY     51  37  58 SE13      30.06R
WILLIMANTIC    SUNNY     61  16  17 CALM      30.02F

 IN RI

CITY           SKY/WX    TMP DP  RH WIND       PRES   REMARKS
PROVIDENCE     PTSUNNY   57  22  25 VRB5      30.04F
BLOCK ISLAND   MOSUNNY   50  29  44 SE13      30.08R
WESTERLY       SUNNY     52  23  32 SE10      30.07R

 IN MA

CITY           SKY/WX    TMP DP  RH WIND       PRES   REMARKS
BOSTON         MOSUNNY   52  26  36 E15       30.04F
WORCESTER      SUNNY     52  15  23 NW8G17    30.02F
WESTFIELD      SUNNY     57  15  19 SE6       30.01F
PROVINCETOWN   SUNNY     49  23  36 NE9       30.08F
NANTUCKET      SUNNY     52  31  44 SE12      30.06F
$$

ANZ330-335-338-340-345-350-353-355-281800-
COASTAL MARINE OBSERVATIONS


STATION/POSITION TIME  SKY/WX   TEMP    WIND        PRES    VSBY  WAVE
                                AIR SEA DIR/SP/G                  HT/PER
                 (UTC)          (F)     (DEG/KT/KT) (MB)    (MI)  (FT/S)
NY HARB ENTRANCE 1550            50 51  110/ 12/ 14 1017.9          3/ 7
20S FIRE ISLAND  1550            48 49  100/ 14/ 16 1018.0          3/ 4
GREAT SOUTH BAY  1615            49 58  120/ 12/ 16   N/A
23 SSW MONTAUK P 1650            47 47  100/ 10/ 12 1018.0          3/ 8
15 E BARNEGAT LI 1622               51                N/A           4/ 5
HUDSON CANYON    1550            50 49              1016.9          3/ 3
KINGS POINT      1600            54 53              1017.9
EXECUTION ROCKS  NOT AVBL
CENTRAL LI SOUND 1600            49     160/  4/  6   N/A           1
EASTERN LI SOUND 1600            48 48  130/ 10/ 12   N/A
ROBBINS REEF     1600            53      60/  4/  5 1017.3
$$


>>>>>>>>>>>>>>>>>>>>>>>>>>>> KEY <<<<<<<<<<<<<<<<<<<<<<<<<<<
>                                                          <
>     SKY/WX - SKY CONDITION/PRESENT WEATHER               <
>     TMP    - TEMPERATURE IN FAHRENHEIT                   <
>     DP     - DEWPOINT IN FAHRENHEIT                      <
>     RH     - RELATIVE HUMIDITY IN PERCENT                <
>     WIND   - DIRECTION AND SPEED IN MPH                  <
>     PRES   - MEAN SEA LEVEL PRESSURE IN INCHES OF HG     <
>     WCI    - WIND CHILL INDEX                            <
>     VSB    - VISIBILITY IN MILES                         <
>     HX     - HEAT INDEX                                  <
>     TC     - TEMPERATURE IN CELSIUS                      <
>     VRB    - VARIABLE WIND DIRECTION                     <
>                                                          <
>>>>>>>>>>>>>>>>>>>>>>>>>>>> KEY <<<<<<<<<<<<<<<<<<<<<<<<<<<





USA.gov is the U.S. government's official web portal to all federal, state and local government web resources and services.